Find STARLINK-38119

NORAD ID: 799501186 Int'l Des: 2026-160J Constellation: starlink operational

Aktuelle Ansicht

3D-Globus wird geladen...

About STARLINK-38119

STARLINK-38119 (NORAD 799501186) is a starlink constellation satellite launched Jul 9, 2026

Über STARLINK-38119

Beschreibung wird geladen...

Nächste Überflüge

Passes for default location (London). Set your location on the main map for personalized predictions.

Höhenverlauf

Loading altitude history...

Zweizeiliger Elementsatz

1 99999C 2026160J 26195.39076389 .00426330 00000-0 554970-4 0 1950
2 99999 70.0025 28.6103 0009893 259.5450 329.6112 16.06460420 14
Epoch: 14. Juli 2026 • Age: 3 hours